Погода в Гаджиево

Россия / Мурманская область     69°14′56″N   33°18′54″E
темп.,
°C
ветер,
м/с
пор.,
м/с
влажн.,
%
обл.,
%
осадки,
мм/ч
давл.,
гПа
погр.,
м
26 октября, вт
вт2600:00−6юв2291100 0.0 101059
03:00−6юв2293100 0.0 101054
06:00−5юв3690100 0.0 1009165
09:00−3вюв4881100 0.1 1008249
12:00−2вюв5977100 0.0 1008344
15:00−2вюв71084100 0.1 1007349
18:00−2вюв5984100 0.0 1007261
21:00−3вюв5885100 0.0 1007229
27 октября, ср
ср2700:00−3в468368 0.0 1007182
03:00−3в488051 0.2 1007231
06:00−2в348990 0.6 1007210
09:00−2в468797 1.0 1007229
12:00−2в469497 1.9 1008280
15:00−1всв3589100 4.1 1009348
18:00−3св356760 0.3 1010282
21:00−4в246730 0.3 1010282
28 октября, чт
чт2800:00−5в137132 0.1 1012204
03:00−6ююз117732 0.1 101342
06:00−7юв238535 0.0 101571
09:00−7ююз33905 0.0 101649
12:00−6ю34885 0.0 101864
15:00−6ю458568 0.0 101893
18:00−6ю4686100 0.0 1018105
21:00−5ююв51280100 0.0 1016320
29 октября, пт
пт2900:00−3ю101789100 0.2 1013808
03:00−3ю111995100 1.6 1008778
06:00−2ю111996100 7.1 1003745
09:00−1ююз91796100 9.9 1000604
12:00+1юз91598100 0.6 998602
15:00+1з8128875 0.8 999465
18:00−2зсз599362 0.0 1001230
21:000зюз4892100 0.0 1003165
30 октября, сб
сб3000:000зюз699469 0.0 1003269
03:00−2юз479560 0.0 100497
06:00−3ююз469795 0.0 100385
09:00−4ююз449895 0.0 100367
12:00−2ююз4598100 0.0 1002132
15:000ю4895100 0.4 1000171
18:00+1ю4899100 2.8 997169
21:00+2ююз47100100 3.4 995145